VKG4405 LGRP-ESOK

Flight info

Callsign VKG4405
Flight time N/A
Altitude 34000
Route CODIC R19 AKINA UN133 PEREN N133 LOMOS DCT EKNAB DCT MEGIK DCT KEKED N133 PENOR DCT NEFYN DCT DETSO
Aircraft A321/M-SDE3FGHIRWY/LB1

Departure

Time 2026-04-30 14:12
Airport Rhodes International Airport "Diagoras" (LGRP)

Arrival

Time N/A
Airport Karlstad Airport (ESOK)
Time Latitude Longitude Altitude Speed Heading
2026-04-30 13:31 36.40356 28.09088 28 ft 0 kts 160°
2026-04-30 14:02 36.40362 28.09086 28 ft 4 kts 160°
2026-04-30 14:02 36.40384 28.09076 28 ft 3 kts 159°
2026-04-30 14:02 36.40405 28.09060 28 ft 4 kts 118°
2026-04-30 14:02 36.40408 28.09031 28 ft 4 kts 73°
2026-04-30 14:03 36.40408 28.09033 28 ft 4 kts 73°
2026-04-30 14:03 36.40412 28.09048 28 ft 0 kts 70°
2026-04-30 14:06 36.40416 28.09061 28 ft 4 kts 71°
2026-04-30 14:06 36.40448 28.09171 28 ft 8 kts 70°
2026-04-30 14:07 36.40486 28.09302 28 ft 8 kts 67°
2026-04-30 14:07 36.40520 28.09357 28 ft 8 kts 41°
2026-04-30 14:07 36.40566 28.09398 28 ft 8 kts 39°
2026-04-30 14:08 36.40622 28.09531 28 ft 9 kts 70°
2026-04-30 14:08 36.40649 28.09624 28 ft 16 kts 70°
2026-04-30 14:08 36.40725 28.09884 28 ft 15 kts 70°
2026-04-30 14:09 36.40759 28.09999 28 ft 14 kts 70°
2026-04-30 14:09 36.40790 28.10106 28 ft 13 kts 70°
2026-04-30 14:09 36.40844 28.10286 28 ft 10 kts 70°
2026-04-30 14:10 36.40864 28.10359 28 ft 8 kts 70°
2026-04-30 14:10 36.40885 28.10420 28 ft 8 kts 55°
2026-04-30 14:10 36.40955 28.10424 28 ft 12 kts 331°
2026-04-30 14:10 36.41016 28.10352 27 ft 11 kts 320°
2026-04-30 14:11 36.41035 28.10312 27 ft 4 kts 269°
2026-04-30 14:11 36.41029 28.10289 28 ft 2 kts 249°
2026-04-30 14:11 36.41021 28.10262 28 ft 10 kts 249°
2026-04-30 14:11 36.40928 28.09946 27 ft 73 kts 250°
2026-04-30 14:12 36.40688 28.09127 31 ft 127 kts 250°
2026-04-30 14:12 36.40465 28.08365 29 ft 156 kts 250°
2026-04-30 14:12 36.40082 28.07022 414 ft 161 kts 253°
2026-04-30 14:12 36.39862 28.05696 1042 ft 158 kts 265°
2026-04-30 14:13 36.39801 28.04328 1630 ft 159 kts 267°
2026-04-30 14:13 36.39763 28.02882 1844 ft 178 kts 267°
2026-04-30 14:13 36.39714 28.01267 2036 ft 198 kts 267°
2026-04-30 14:13 36.39643 27.99484 2246 ft 215 kts 266°
2026-04-30 14:14 36.39543 27.97567 2466 ft 233 kts 265°
2026-04-30 14:14 36.39421 27.95444 2740 ft 255 kts 265°
2026-04-30 14:14 36.39395 27.93209 3352 ft 264 kts 277°
2026-04-30 14:14 36.39963 27.91042 4162 ft 264 kts 293°
2026-04-30 14:15 36.40723 27.88935 4859 ft 270 kts 294°
2026-04-30 14:15 36.41512 27.86821 5658 ft 270 kts 295°
2026-04-30 14:15 36.42302 27.84689 6387 ft 273 kts 295°
2026-04-30 14:15 36.43086 27.82567 7074 ft 276 kts 295°
2026-04-30 14:16 36.43886 27.80393 7771 ft 278 kts 295°
2026-04-30 14:16 36.44693 27.78196 8474 ft 281 kts 295°
2026-04-30 14:16 36.45506 27.75982 9179 ft 283 kts 295°
2026-04-30 14:16 36.46327 27.73748 9875 ft 286 kts 295°
2026-04-30 14:17 36.47160 27.71466 10288 ft 299 kts 294°
2026-04-30 14:17 36.48036 27.69021 10422 ft 320 kts 294°
2026-04-30 14:17 36.48961 27.66406 10540 ft 341 kts 294°
2026-04-30 14:17 36.49940 27.63631 10679 ft 359 kts 294°
2026-04-30 14:18 36.50955 27.60747 11103 ft 367 kts 294°
2026-04-30 14:18 36.51986 27.57824 11693 ft 370 kts 293°
2026-04-30 14:18 36.54078 27.51923 12911 ft 376 kts 293°
2026-04-30 14:19 36.56195 27.45941 14087 ft 380 kts 293°
2026-04-30 14:19 36.57262 27.42922 14615 ft 382 kts 293°
2026-04-30 14:19 36.58334 27.39880 15131 ft 385 kts 293°
2026-04-30 14:20 36.59406 27.36821 15636 ft 387 kts 293°
2026-04-30 14:20 36.60488 27.33738 16133 ft 390 kts 293°
2026-04-30 14:20 36.62672 27.27520 17115 ft 394 kts 293°
2026-04-30 14:21 36.63772 27.24382 17603 ft 397 kts 293°
2026-04-30 14:21 36.64879 27.21220 18088 ft 399 kts 293°
2026-04-30 14:21 36.67104 27.14841 18942 ft 404 kts 292°
2026-04-30 14:22 36.68225 27.11626 19388 ft 405 kts 292°
2026-04-30 14:22 36.70476 27.05163 20216 ft 408 kts 292°
2026-04-30 14:22 36.71609 27.01904 20640 ft 410 kts 292°
2026-04-30 14:23 36.73889 26.95345 21467 ft 414 kts 292°
2026-04-30 14:23 36.76187 26.88722 22284 ft 418 kts 292°
2026-04-30 14:24 36.78487 26.82070 23063 ft 422 kts 292°
2026-04-30 14:24 36.79647 26.78697 23449 ft 424 kts 292°
2026-04-30 14:25 36.81977 26.71903 24114 ft 428 kts 292°
2026-04-30 14:25 36.84328 26.65062 24773 ft 430 kts 292°
2026-04-30 14:26 36.86690 26.58183 25399 ft 432 kts 292°
2026-04-30 14:26 36.87874 26.54722 25704 ft 434 kts 292°
2026-04-30 14:26 36.90245 26.47771 26316 ft 436 kts 292°
2026-04-30 14:27 36.91435 26.44274 26628 ft 438 kts 292°
2026-04-30 14:27 36.92626 26.40774 26929 ft 439 kts 292°
2026-04-30 14:27 36.93822 26.37259 27216 ft 440 kts 292°
2026-04-30 14:28 36.96295 26.30291 27996 ft 437 kts 298°
2026-04-30 14:28 36.97995 26.27141 28384 ft 438 kts 307°
2026-04-30 14:28 37.00113 26.24404 28777 ft 440 kts 317°
2026-04-30 14:28 37.02600 26.22156 29112 ft 443 kts 326°
2026-04-30 14:29 37.08133 26.18687 29813 ft 444 kts 330°
2026-04-30 14:29 37.13676 26.15317 30458 ft 442 kts 330°
2026-04-30 14:30 37.21945 26.10264 31370 ft 439 kts 330°
2026-04-30 14:31 37.27433 26.06898 31984 ft 438 kts 330°
2026-04-30 14:31 37.32911 26.03541 32590 ft 437 kts 329°
2026-04-30 14:31 37.35641 26.01861 32899 ft 436 kts 329°
2026-04-30 14:32 37.41078 25.98501 33530 ft 434 kts 329°
2026-04-30 14:32 37.43785 25.96830 33838 ft 433 kts 329°
2026-04-30 14:32 37.46493 25.95160 33985 ft 433 kts 329°
2026-04-30 14:33 37.49158 25.93514 34006 ft 432 kts 329°
2026-04-30 14:33 37.57223 25.88520 34002 ft 430 kts 329°
2026-04-30 14:34 37.62592 25.85191 34002 ft 430 kts 329°
2026-04-30 14:34 37.67957 25.81856 34002 ft 430 kts 328°